Location: *
(51.5000°N, 0.1100°W)
Time: 19:20:37
(UTC+00:00)

Cosmos 1315 Rocket - Pass Details

Date: 25 May 2024
Orbit: 515 x 542 km, 81.2° (Epoch: 16 June)

Event Time Altitude Azimuth Distance (km) Brightness Sun altitude
Exits shadow 01:18:35 27° 175° (S) 1,030 3.7 -15.3°
Maximum altitude 01:20:33 67° 100° (E) 576 2.9 -15.2°
Drops below altitude 10° 01:24:28 10° 17° (NNE) 1,793 6.8 -15.0°
Sets 01:26:39 0° 15° (NNE) 2,694 8.2 -14.9°
